This is the latest recevied weather packets stored in our database for station/object KE8WAY. If no packets are shown the sender has not sent any weather packets the latest 10 day(s).
| Time | Temp. | Humidity | Pressure | Rain* | Wind** | Luminosity | Snow |
|---|---|---|---|---|---|---|---|
| 1777986339 | 16.67° C | 74% | 1003.9 hPa | 0 mm | - | 239 W/m² | - |
| 1777986037 | 16.67° C | 73% | 1004 hPa | 0 mm | - | 261 W/m² | - |
| 1777985733 | 16.11° C | 73% | 1004 hPa | 0 mm | - | 248 W/m² | - |
| 1777985430 | 16.11° C | 74% | 1003.9 hPa | 0 mm | - | 225 W/m² | - |
| 1777985127 | 16.67° C | 73% | 1003.9 hPa | 0 mm | - | 239 W/m² | - |
| 1777984823 | 16.11° C | 74% | 1004.4 hPa | 0 mm | - | 265 W/m² | - |
| 1777984520 | 16.11° C | 76% | 1004.5 hPa | 0 mm | - | 227 W/m² | - |
| 1777984216 | 15.56° C | 75% | 1004 hPa | 0 mm | - | 200 W/m² | - |
| 1777983913 | 15.56° C | 76% | 1004 hPa | 0 mm | - | 158 W/m² | - |
| 1777983610 | 15° C | 76% | 1004 hPa | 0 mm | - | 110 W/m² | - |
| 1777983306 | 15.56° C | 76% | 1004.2 hPa | 0 mm | - | 85 W/m² | - |
| 1777983003 | 15.56° C | 77% | 1004.4 hPa | 0 mm | - | 109 W/m² | - |
| 1777982699 | 15° C | 77% | 1004.2 hPa | 0 mm | - | 113 W/m² | - |
| 1777982398 | 15° C | 77% | 1004.3 hPa | 0 mm | - | 97 W/m² | - |
| 1777982094 | 15° C | 76% | 1004.2 hPa | 0 mm | - | 103 W/m² | - |
| 1777981793 | 15° C | 77% | 1004.2 hPa | 0 mm | - | 81 W/m² | - |
| 1777981489 | 15° C | 76% | 1004.2 hPa | 0 mm | - | 75 W/m² | - |
| 1777981186 | 15° C | 77% | 1003.8 hPa | 0 mm | - | 55 W/m² | - |
| 1777980882 | 15° C | 77% | 1003.9 hPa | 0 mm | - | 49 W/m² | - |
| 1777980578 | 15° C | 76% | 1003.5 hPa | 0 mm | - | 46 W/m² | - |
| 1777980276 | 15° C | 76% | 1003.5 hPa | 0 mm | - | 45 W/m² | - |
| 1777979972 | 15° C | 77% | 1003.2 hPa | 0 mm | - | 34 W/m² | - |
| 1777979666 | 14.44° C | 77% | 1003.1 hPa | 0 mm | - | 26 W/m² | - |
| 1777979363 | 15° C | 77% | 1002.9 hPa | 0 mm | - | 23 W/m² | - |
| 1777979060 | 15° C | 77% | 1002.7 hPa | 0 mm | - | 17 W/m² | - |
* Rain latest hour (hover to see other rain measurements)
** Current wind speed in m/s (hover to see current wind gust speed)